Weather History for Denton, TX

Change the Weather History Date:

Friday, December 7, 2012

  Actual Average Record
Temperature  
Mean Temperature 58 °F -  
Max Temperature 71 °F 56 °F 82 °F (2007)
Min Temperature 44 °F 35 °F 15 °F (2013)
Degree Days  
Heating Degree Days 8    
Growing Degree Days 8 (Base 50)    
Moisture  
Dew Point 44 °F    
Average Humidity 68    
Maximum Humidity 93    
Minimum Humidity 35    
Precipitation  
Precipitation 0.00 in - - ()
Sea Level Pressure  
Sea Level Pressure 29.83 in    
Wind  
Wind Speed 6 mph (West)    
Max Wind Speed 10 mph    
Max Gust Speed -    
Visibility 10 miles    
Events      
Averages and records for this station are not official NWS values.
T = Trace of Precipitation, MM = Missing Value Source: NWS Daily Summary

Daily Weather History Graph

Daily Weather History Graph

Search for Another Location

Airport:

Trip Planner

Search our weather history database for the weather conditions in past years. The results will help you decide how hot, cold, wet, or windy it might be!

Date:

Astronomy

Dec. 07, 2012 Rise Set
Actual Time 7:19 AM CST 5:21 PM CST
Civil Twilight 6:52 AM CST 5:48 PM CST
Nautical Twilight 6:21 AM CST 6:19 PM CST
Astronomical Twilight 5:51 AM CST 6:49 PM CST
Moon 12:56 AM CST (12/7) 1:04 PM CST (12/7)
Length of Visible Light 10h 56m
Length of Day
10h 01m
Last Quarter, 38% of the Moon is Illuminated
Dec 7
Last Quarter
Dec 13
New
Dec 19
First Quarter
Dec 28
Full
Jan 4
Last Quarter

Hourly Weather History & Observations

Time (CST) Temp. Windchill Dew Point Humidity Pressure Visibility Wind Dir Wind Speed Gust Speed Precip Events Conditions
12:53 AM 52.0 °F - 46.9 °F 83% 29.81 in 10.0 mi SE 4.6 mph - N/A   Clear
1:53 AM 52.0 °F - 48.0 °F 86% 29.79 in 10.0 mi SE 6.9 mph - N/A   Clear
2:53 AM 50.0 °F - 48.0 °F 93% 29.79 in 10.0 mi SSE 9.2 mph - N/A   Clear
3:53 AM 50.0 °F - 46.9 °F 89% 29.80 in 10.0 mi NW 3.5 mph - N/A   Clear
4:53 AM 48.9 °F - 45.0 °F 86% 29.81 in 10.0 mi WSW 6.9 mph - N/A   Clear
5:53 AM 46.0 °F 43.1 °F 41.0 °F 83% 29.82 in 10.0 mi WSW 5.8 mph - N/A   Clear
6:53 AM 44.1 °F - 39.0 °F 82% 29.84 in 10.0 mi Calm Calm - N/A   Clear
7:53 AM 44.1 °F 40.1 °F 39.0 °F 82% 29.86 in 10.0 mi WSW 6.9 mph - N/A   Clear
8:53 AM 48.0 °F - 42.1 °F 80% 29.87 in 10.0 mi West 8.1 mph - N/A   Clear
9:53 AM 51.1 °F - 43.0 °F 74% 29.88 in 10.0 mi West 4.6 mph - N/A   Clear
10:53 AM 57.9 °F - 44.1 °F 60% 29.86 in 10.0 mi Variable 3.5 mph - N/A   Clear
11:53 AM 63.0 °F - 45.0 °F 52% 29.84 in 10.0 mi WSW 8.1 mph - N/A   Clear
12:53 PM 66.0 °F - 43.0 °F 43% 29.81 in 10.0 mi Variable 6.9 mph - N/A   Clear
1:53 PM 66.9 °F - 42.1 °F 40% 29.78 in 10.0 mi Variable 3.5 mph - N/A   Clear
2:53 PM 69.1 °F - 43.0 °F 39% 29.78 in 10.0 mi SSW 3.5 mph - N/A   Clear
3:53 PM 71.1 °F - 42.1 °F 35% 29.77 in 10.0 mi Variable 3.5 mph - N/A   Partly Cloudy
4:53 PM 69.1 °F - 42.1 °F 38% 29.79 in 10.0 mi SSW 8.1 mph - N/A   Clear
5:53 PM 62.1 °F - 43.0 °F 50% 29.80 in 10.0 mi SSW 5.8 mph - N/A   Clear
6:53 PM 59.0 °F - 45.0 °F 60% 29.82 in 10.0 mi North 9.2 mph - N/A   Mostly Cloudy
7:53 PM 54.0 °F - 44.1 °F 69% 29.83 in 10.0 mi North 5.8 mph - N/A   Clear
8:53 PM 52.0 °F - 43.0 °F 71% 29.86 in 10.0 mi North 4.6 mph - N/A   Clear
9:53 PM 50.0 °F - 43.0 °F 77% 29.88 in 10.0 mi North 6.9 mph - N/A   Clear
10:53 PM 50.0 °F - 43.0 °F 77% 29.88 in 10.0 mi North 10.4 mph - N/A   Clear
11:53 PM 48.9 °F - 44.1 °F 83% 29.88 in 10.0 mi North 8.1 mph - N/A   Scattered Clouds